Regional Weather Roundup
Issued by NWS Midland/Odessa, TX

Home | Current Version | Previous Version | Text Only | Print | Product List | Glossary On
Versions: 1 2 3 4 5 6 7 8 9 10 11 12 13 14 15 16 17 18 19 20 21 22 23 24 25 26 27 28 29 30 31 32 33 34 35 36 37 38 39 40 41 42 43 44 45 46 47 48 49 50
000
ASUS44 KMAF 240910
RWRMAF
MIDLAND AREA WEATHER ROUNDUP
NATIONAL WEATHER SERVICE MIDLAND TX
400 AM CDT TUE APR 24 2018

...IN SOUTHWEST TEXAS AND SOUTHEAST NEW MEXICO...

CITY           SKY/WX    TMP DP  RH WIND       PRES   REMARKS
ALPINE         CLEAR     60  41  48 SW7       30.15S
ANDREWS        FAIR      56  38  52 SE5       30.03S
ARTESIA        CLEAR     59  27  29 SW7       30.00S
BIG SPRING     CLEAR     63  40  42 E10       30.04S
CARLSBAD       CLEAR     58  31  35 SE6       29.98S
DRYDEN           N/A     63  50  62 N7        29.99F
FORT STOCKTON  CLEAR     65  50  58 S14       30.00F
GUAD PASS      CLEAR     67  31  26 SW8       30.13F
HOBBS          CLEAR     57  37  47 SW8       30.03F
LAMESA         CLOUDY    57  39  51 E10       30.05R
MARFA          CLEAR     48  31  51 N3        30.14S
MIDLAND AIRPK    N/A     62  39  41 CALM      30.02S
MIDLAND INTL   CLEAR     60  40  47 SE6       30.00F
ODESSA         CLEAR     60  42  51 SE7       30.01F
PECOS          CLEAR     60  41  50 E3        29.97F
PRESIDIO       FAIR      73  47  40 N5        30.02S
SEMINOLE       CLEAR     54  37  52 NE3       30.04S
SNYDER         CLEAR     58  40  51 E6        30.04F
WINK           CLEAR     62  45  53 E7        29.98F
$$
...OTHER STATIONS IN TEXAS...

CITY           SKY/WX    TMP DP  RH WIND       PRES   REMARKS
ABILENE        CLEAR     58  47  66 SE13      30.04F
AMARILLO       CLEAR     51  42  71 S13       30.06R
AUSTIN         CLEAR     51  50  96 CALM      30.04S
BROWNSVILLE    FAIR      69  65  86 CALM      30.01F
CORPUS CHRISTI PTCLDY    57  56  96 N5        30.00F
DALLAS FTW     CLEAR     59  52  77 N3        30.02R
DEL RIO        CLEAR     67  54  63 E8        29.99S
EL PASO        PTCLDY    65  26  23 S5        30.01S
HOUSTON INT    FAIR      59  56  89 CALM      30.03F
LUBBOCK        CLEAR     54  38  54 SE9       30.05R
SAN ANGELO     CLEAR     56  42  59 N6        30.02S
SAN ANTONIO    PTCLDY    61  53  75 CALM      30.03S
WACO           CLEAR     56  53  90 SW9       30.05F
WICHITA FALLS  PTCLDY    52  44  74 N6        30.07S
$$
...OTHER LOCATIONS IN NEW MEXICO...

CITY           SKY/WX    TMP DP  RH WIND       PRES   REMARKS
ALAMOGORDO     PTCLDY    61  19  20 CALM      30.04S
ALBUQUERQUE    CLEAR     54  23  30 SE8       30.08S
CANNON AFB     NOT AVBL
CLOVIS         CLEAR     49  35  58 SE8       30.06F
HOLLOMAN AFB   PTCLDY    57  21  24 SE5       30.05S
ROSWELL        CLEAR     55  28  35 SW7       29.99F
RUIDOSO        NOT AVBL
SANTA FE       CLEAR     43  17  35 N7        30.11S WCI  39
TRUTH OR CONSE CLEAR     63  17  17 SW6       30.07S
TUCUMCARI      CLEAR     58  37  45 S9        29.99S
$$




USA.gov is the U.S. government's official web portal to all federal, state and local government web resources and services.